Terminal Aerodrome Forecast
Issued by NWS Missoula, MT

Home | Current Version | Previous Version | Text Only | Print | Product List | Glossary On
Versions: 1 2 3 4 5 6 7 8 9 10 11 12 13 14 15 16 17 18 19 20 21
000
FTUS45 KMSO 271720
TAFBTM
TAF
KBTM 271720Z 2718/2818 16006KT P6SM SCT060
     FM272200 04011KT P6SM VCSH BKN040
     FM280200 36008KT 2SM -SN BR OVC030
     FM280600 36006KT P6SM OVC050=

USA.gov is the U.S. government's official web portal to all federal, state and local government web resources and services.